Weather History for Mena, AR

Change the Weather History Date:

Sunday, July 22, 2012

  Actual Average (KFSM) Record (KFSM)
Temperature  
Mean Temperature 86 °F -  
Max Temperature 100 °F 91 °F 106 °F (1943)
Min Temperature 71 °F 70 °F 51 °F (1970)
Cooling Degree Days 20    
Growing Degree Days 36 (Base 50)    
Moisture  
Dew Point 66 °F    
Average Humidity 57    
Maximum Humidity 100    
Minimum Humidity 21    
Precipitation  
Precipitation 0.00 in - - ()
Sea Level Pressure  
Sea Level Pressure 30.05 in    
Wind  
Wind Speed 2 mph (ESE)    
Max Wind Speed 12 mph    
Max Gust Speed -    
Visibility 9 miles    
Events      
Averages and records for this station are not official NWS values.
T = Trace of Precipitation, MM = Missing Value Source: NWS Daily Summary

Daily Weather History Graph

Daily Weather History Graph

Search for Another Location

Airport:

Trip Planner

Search our weather history database for the weather conditions in past years. The results will help you decide how hot, cold, wet, or windy it might be!

Date:

Astronomy

Jul. 22, 2012 Rise Set
Actual Time 6:20 AM CDT 8:25 PM CDT
Civil Twilight 5:52 AM CDT 8:54 PM CDT
Nautical Twilight 5:17 AM CDT 9:28 PM CDT
Astronomical Twilight 4:40 AM CDT 10:05 PM CDT
Moon 9:54 AM CDT (7/22) 10:23 PM CDT (7/22)
Length of Visible Light 15h 02m
Length of Day
14h 05m
Waxing Crescent, 13% of the Moon is Illuminated
Jul 22
Waxing Crescent
Jul 26
First Quarter
Aug 1
Full
Aug 9
Last Quarter
Aug 17
New

Hourly Weather History & Observations

Time (CDT) Temp. Heat Index Dew Point Humidity Pressure Visibility Wind Dir Wind Speed Gust Speed Precip Events Conditions
12:15 AM 82.4 °F 86.3 °F 69.8 °F 66% 30.03 in 10.0 mi Calm Calm - N/A   Clear
12:35 AM 82.4 °F 86.3 °F 69.8 °F 66% 30.03 in 10.0 mi Calm Calm - N/A   Clear
12:55 AM 82.4 °F 86.3 °F 69.8 °F 66% 30.03 in 10.0 mi Calm Calm - N/A   Clear
1:15 AM 80.6 °F 83.9 °F 69.8 °F 70% 30.02 in 10.0 mi Calm Calm - N/A   Clear
1:35 AM 80.6 °F 83.9 °F 69.8 °F 70% 30.02 in 10.0 mi Calm Calm - N/A   Clear
1:55 AM 78.8 °F - 69.8 °F 74% 30.02 in 10.0 mi Calm Calm - N/A   Clear
2:15 AM 78.8 °F - 69.8 °F 74% 30.02 in 10.0 mi Calm Calm - N/A   Clear
2:35 AM 77.0 °F - 69.8 °F 78% 30.02 in 10.0 mi Calm Calm - N/A   Clear
2:55 AM 77.0 °F - 69.8 °F 78% 30.02 in 10.0 mi Calm Calm - N/A   Clear
3:15 AM 75.2 °F - 69.8 °F 83% 30.01 in 10.0 mi Calm Calm - N/A   Clear
3:35 AM 75.2 °F - 71.6 °F 89% 30.02 in 10.0 mi Calm Calm - N/A   Clear
3:55 AM 73.4 °F - 71.6 °F 94% 30.03 in 7.0 mi Calm Calm - N/A   Clear
4:15 AM 73.4 °F - 71.6 °F 94% 30.03 in 7.0 mi Calm Calm - N/A   Clear
4:35 AM 73.4 °F - 71.6 °F 94% 30.03 in 7.0 mi Calm Calm - N/A   Clear
4:55 AM 73.4 °F - 71.6 °F 94% 30.03 in 7.0 mi Calm Calm - N/A   Clear
5:15 AM 73.4 °F - 71.6 °F 94% 30.03 in 7.0 mi Calm Calm - N/A   Clear
5:35 AM 73.4 °F - 71.6 °F 94% 30.03 in 7.0 mi Calm Calm - N/A   Clear
5:55 AM 71.6 °F - 71.6 °F 100% 30.04 in 5.0 mi Calm Calm - N/A   Clear
6:15 AM 71.6 °F - 71.6 °F 100% 30.04 in 5.0 mi Calm Calm - N/A   Clear
6:35 AM 71.6 °F - 71.6 °F 100% 30.05 in 4.0 mi Calm Calm - N/A   Clear
6:55 AM 71.6 °F - 71.6 °F 100% 30.06 in 3.0 mi Calm Calm - N/A   Clear
7:15 AM 73.4 °F - 71.6 °F 94% 30.07 in 7.0 mi Calm Calm - N/A   Clear
7:35 AM 75.2 °F - 73.4 °F 94% 30.08 in 7.0 mi Calm Calm - N/A   Clear
7:55 AM 77.0 °F - 73.4 °F 89% 30.08 in 7.0 mi Calm Calm - N/A   Clear
8:15 AM 78.8 °F - 73.4 °F 83% 30.09 in 7.0 mi Calm Calm - N/A   Clear
8:35 AM 80.6 °F 86.2 °F 75.2 °F 84% 30.10 in 7.0 mi Calm Calm - N/A   Clear
8:55 AM 80.6 °F 86.2 °F 75.2 °F 84% 30.11 in 10.0 mi NE 4.6 mph - N/A   Scattered Clouds
9:15 AM 82.4 °F 89.5 °F 75.2 °F 79% 30.10 in 10.0 mi ENE 3.5 mph - N/A   Scattered Clouds
9:35 AM 84.2 °F 90.9 °F 73.4 °F 70% 30.10 in 10.0 mi East 4.6 mph - N/A   Scattered Clouds
9:55 AM 86.0 °F 91.8 °F 71.6 °F 62% 30.10 in 10.0 mi East 3.5 mph - N/A   Scattered Clouds
10:15 AM 87.8 °F 92.6 °F 69.8 °F 55% 30.10 in 10.0 mi East 5.8 mph - N/A   Clear
10:35 AM 89.6 °F 94.7 °F 69.8 °F 52% 30.10 in 10.0 mi Calm Calm - N/A   Scattered Clouds
10:55 AM 91.4 °F 95.4 °F 68.0 °F 46% 30.09 in 10.0 mi ENE 6.9 mph - N/A   Mostly Cloudy
11:35 AM 91.4 °F 93.2 °F 64.4 °F 41% 30.08 in 10.0 mi Calm Calm - N/A   Scattered Clouds
11:55 AM 91.4 °F 93.2 °F 64.4 °F 41% 30.08 in 10.0 mi ESE 4.6 mph - N/A   Scattered Clouds
12:15 PM 93.2 °F 94.1 °F 62.6 °F 36% 30.08 in 10.0 mi East 5.8 mph - N/A   Clear
12:35 PM 95.0 °F 96.0 °F 62.6 °F 34% 30.07 in 10.0 mi ENE 3.5 mph - N/A   Scattered Clouds
12:55 PM 95.0 °F 94.4 °F 59.0 °F 30% 30.07 in 10.0 mi ESE 4.6 mph - N/A   Scattered Clouds
1:15 PM 95.0 °F 94.4 °F 59.0 °F 30% 30.06 in 10.0 mi East 4.6 mph - N/A   Scattered Clouds
1:35 PM 95.0 °F 93.0 °F 55.4 °F 26% 30.06 in 10.0 mi Calm Calm - N/A   Scattered Clouds
1:55 PM 98.6 °F 97.2 °F 55.4 °F 24% 30.05 in 10.0 mi ESE 3.5 mph - N/A   Scattered Clouds
2:15 PM 96.8 °F 95.1 °F 55.4 °F 25% 30.05 in 10.0 mi Calm Calm - N/A   Clear
2:35 PM 98.6 °F 97.6 °F 57.2 °F 25% 30.04 in 10.0 mi SSW 5.8 mph - N/A   Mostly Cloudy
2:55 PM 98.6 °F 97.2 °F 55.4 °F 24% 30.03 in 10.0 mi SSE 5.8 mph - N/A   Scattered Clouds
3:15 PM 98.6 °F 97.2 °F 55.4 °F 24% 30.03 in 10.0 mi East 3.5 mph - N/A   Clear
3:35 PM 98.6 °F 97.2 °F 55.4 °F 24% 30.02 in 10.0 mi SE 5.8 mph - N/A   Scattered Clouds
3:55 PM 100.4 °F 98.8 °F 55.4 °F 22% 30.02 in 10.0 mi East 5.8 mph - N/A   Scattered Clouds
4:15 PM 100.4 °F 98.4 °F 53.6 °F 21% 30.01 in 10.0 mi ESE 8.1 mph - N/A   Scattered Clouds
4:35 PM 100.4 °F 98.8 °F 55.4 °F 22% 30.01 in 10.0 mi East 6.9 mph - N/A   Mostly Cloudy
4:55 PM 98.6 °F 96.4 °F 53.6 °F 22% 30.01 in 10.0 mi SE 3.5 mph - N/A   Mostly Cloudy
5:15 PM 100.4 °F 98.8 °F 55.4 °F 22% 30.01 in 10.0 mi East 6.9 mph - N/A   Mostly Cloudy
5:35 PM 98.6 °F 98.5 °F 59.0 °F 27% 30.01 in 10.0 mi ESE 9.2 mph - N/A   Mostly Cloudy
5:55 PM 98.6 °F 98.5 °F 59.0 °F 27% 30.01 in 10.0 mi East 11.5 mph - N/A   Mostly Cloudy
6:15 PM 95.0 °F 96.0 °F 62.6 °F 34% 30.02 in 10.0 mi East 9.2 mph - N/A   Overcast
6:35 PM 95.0 °F 96.0 °F 62.6 °F 34% 30.03 in 10.0 mi East 6.9 mph - N/A   Mostly Cloudy
6:55 PM 95.0 °F 96.0 °F 62.6 °F 34% 30.03 in 10.0 mi SSE 4.6 mph - N/A   Scattered Clouds
7:15 PM 95.0 °F 96.0 °F 62.6 °F 34% 30.03 in 10.0 mi SE 8.1 mph - N/A   Scattered Clouds
7:35 PM 93.2 °F 94.9 °F 64.4 °F 38% 30.03 in 10.0 mi SSE 8.1 mph - N/A   Scattered Clouds
7:55 PM 91.4 °F 93.2 °F 64.4 °F 41% 30.03 in 10.0 mi SE 4.6 mph - N/A   Clear
8:15 PM 91.4 °F 94.0 °F 66.2 °F 43% 30.04 in 10.0 mi SSE 3.5 mph - N/A   Clear
8:35 PM 91.4 °F 95.4 °F 68.0 °F 46% 30.04 in 10.0 mi ESE 4.6 mph - N/A   Clear
8:55 PM 89.6 °F 93.4 °F 68.0 °F 49% 30.05 in 10.0 mi Calm Calm - N/A   Clear
9:15 PM 89.6 °F 93.4 °F 68.0 °F 49% 30.06 in 10.0 mi SSE 3.5 mph - N/A   Clear
9:35 PM 89.6 °F 94.7 °F 69.8 °F 52% 30.08 in 10.0 mi SE 4.6 mph - N/A   Clear
9:55 PM 89.6 °F 94.7 °F 69.8 °F 52% 30.08 in 10.0 mi Calm Calm - N/A   Mostly Cloudy
10:15 PM 87.8 °F 92.6 °F 69.8 °F 55% 30.10 in 10.0 mi Calm Calm - N/A   Mostly Cloudy
10:35 PM 87.8 °F 92.6 °F 69.8 °F 55% 30.10 in 10.0 mi SE 3.5 mph - N/A   Scattered Clouds
10:55 PM 87.8 °F 92.6 °F 69.8 °F 55% 30.10 in 10.0 mi ESE 3.5 mph - N/A   Clear
11:15 PM 86.0 °F 90.4 °F 69.8 °F 58% 30.10 in 10.0 mi Calm Calm - N/A   Clear
11:35 PM 86.0 °F 90.4 °F 69.8 °F 58% 30.10 in 10.0 mi Calm Calm - N/A   Clear
11:55 PM 84.2 °F 88.4 °F 69.8 °F 62% 30.10 in 10.0 mi Calm Calm - N/A   Clear